Clearfield, PA

9:14 PM EDT on October 23, 2017 (GMT -0400)
Clearfield-Lawrence

Weather History for KFIG - February, 2013

Change the Weather History Date:

Sunday, February 17, 2013

  Actual Average (KDUJ) Record (KDUJ)
Temperature  
Mean Temperature 16 °F -  
Max Temperature 21 °F 32 °F 58 °F (2006)
Min Temperature 12 °F 17 °F -11 °F (1973)
Degree Days  
Heating Degree Days 48    
Moisture  
Dew Point 6 °F    
Average Humidity 64    
Maximum Humidity 77    
Minimum Humidity 46    
Precipitation  
Precipitation 0.00 in - - ()
Sea Level Pressure  
Sea Level Pressure 29.99 in    
Wind  
Wind Speed 11 mph (WNW)    
Max Wind Speed 23 mph    
Max Gust Speed 33 mph    
Visibility 8 miles    
Events Snow    
Averages and records for this station are not official NWS values.
T = Trace of Precipitation, MM = Missing Value Source: NWS Daily Summary

Daily Weather History Graph

Daily Weather History Graph

Search for Another Location

Airport or City:

Trip Planner

Search our weather history database for the weather conditions in past years. The results will help you decide how hot, cold, wet, or windy it might be!

Date:

Astronomy

Feb. 17, 2013 Rise Set
Actual Time 7:05 AM EST 5:50 PM EST
Civil Twilight 6:36 AM EST 6:18 PM EST
Nautical Twilight 6:04 AM EST 6:51 PM EST
Astronomical Twilight 5:33 AM EST 7:22 PM EST
Moon 10:52 AM EST (2/17) 12:48 AM EST (2/17)
Length of Visible Light 11h 41m
Length of Day
10h 45m
Waxing Crescent, 49% of the Moon is Illuminated
Feb 17
Waxing Crescent
Feb 17
First Quarter
Feb 25
Full
Mar 4
Last Quarter
Mar 11
New

Hourly Weather History & Observations

Time (EST) Temp. Windchill Dew Point Humidity Pressure Visibility Wind Dir Wind Speed Gust Speed Precip Events Conditions
12:54 AM 16.0 °F 10.4 °F 6.1 °F 65% 29.90 in 10.0 mi NNW 3.5 mph - N/A   Clear
1:54 AM 16.0 °F 6.3 °F 5.0 °F 62% 29.89 in 10.0 mi NNW 6.9 mph - N/A   Clear
2:54 AM 14.0 °F 6.5 °F 5.0 °F 67% 29.90 in 10.0 mi NNW 4.6 mph - N/A   Clear
3:54 AM 14.0 °F 3.9 °F 6.1 °F 71% 29.89 in 10.0 mi North 6.9 mph - N/A   Partly Cloudy
4:54 AM 16.0 °F 3.6 °F 7.0 °F 68% 29.90 in 10.0 mi NW 10.4 mph - N/A   Clear
5:54 AM 15.1 °F 1.8 °F 7.0 °F 70% 29.91 in 10.0 mi NW 11.5 mph - N/A   Clear
6:54 AM 14.0 °F 2.0 °F 7.0 °F 74% 29.92 in 10.0 mi NW 9.2 mph - N/A   Partly Cloudy
7:54 AM 15.1 °F 0.5 °F 9.0 °F 77% 29.94 in 10.0 mi NW 13.8 mph 19.6 mph N/A   Clear
8:25 AM 15.8 °F 2.1 °F 8.6 °F 73% 29.86 in 9.0 mi WNW 12.7 mph 19.6 mph 0.00 in Snow Light Snow
9:15 AM 17.6 °F 4.3 °F 10.4 °F 73% 29.87 in 10.0 mi NW 12.7 mph - 0.00 in   Overcast
9:54 AM 19.9 °F 6.2 °F 9.0 °F 62% 29.95 in 10.0 mi WNW 15.0 mph 24.2 mph 0.00 in   Partly Cloudy
10:54 AM 21.0 °F 8.1 °F 7.0 °F 55% 29.96 in 10.0 mi NW 13.8 mph 24.2 mph N/A   Overcast
11:54 AM 19.9 °F 6.2 °F 5.0 °F 52% 29.97 in 9.0 mi NW 15.0 mph 27.6 mph 0.00 in   Overcast
12:54 PM 19.9 °F 5.2 °F 7.0 °F 57% 29.98 in 5.0 mi NW 17.3 mph 27.6 mph 0.00 in Snow Light Snow
1:19 PM 19.4 °F 4.1 °F 8.6 °F 63% 29.90 in 2.5 mi NW 18.4 mph 31.1 mph 0.00 in Snow Light Snow
1:31 PM 19.4 °F 4.5 °F 8.6 °F 63% 29.91 in 1.8 mi NW 17.3 mph 25.3 mph 0.00 in Snow Light Snow
1:37 PM 19.4 °F 6.0 °F 6.8 °F 58% 29.91 in 3.0 mi NW 13.8 mph 25.3 mph 0.00 in Snow Light Snow
1:54 PM 21.9 °F 6.9 °F 3.9 °F 46% 29.98 in 10.0 mi WNW 19.6 mph 33.4 mph 0.00 in   Overcast
2:36 PM 19.4 °F 4.5 °F 8.6 °F 63% 29.92 in 1.8 mi NW 17.3 mph 31.1 mph 0.00 in Snow Light Snow
2:46 PM 19.4 °F 2.8 °F 8.6 °F 63% 29.92 in 3.0 mi WNW 21.9 mph 32.2 mph 0.00 in Snow Light Snow
2:51 PM 17.6 °F 0.1 °F 8.6 °F 68% 29.92 in 1.0 mi WNW 23.0 mph 32.2 mph 0.00 in Snow Light Snow
2:54 PM 18.0 °F 1.3 °F 10.0 °F 71% 30.01 in 0.8 mi NW 20.7 mph 32.2 mph 0.00 in Snow Light Snow
3:02 PM 19.4 °F 3.6 °F 6.8 °F 58% 29.92 in 3.0 mi NW 19.6 mph 33.4 mph 0.00 in Snow Light Snow
3:54 PM 19.0 °F 5.0 °F 3.9 °F 52% 30.02 in 10.0 mi WNW 15.0 mph 29.9 mph 0.00 in   Mostly Cloudy
4:54 PM 18.0 °F 4.2 °F 8.1 °F 65% 30.04 in 6.0 mi WNW 13.8 mph 21.9 mph 0.00 in Snow Light Snow
5:54 PM 17.1 °F 2.0 °F 3.0 °F 54% 30.08 in 10.0 mi WNW 16.1 mph 25.3 mph 0.00 in   Mostly Cloudy
6:54 PM 16.0 °F 4.4 °F 3.9 °F 59% 30.11 in 10.0 mi NW 9.2 mph 24.2 mph N/A   Mostly Cloudy
7:54 PM 15.1 °F 1.8 °F 3.9 °F 61% 30.14 in 10.0 mi West 11.5 mph 20.7 mph N/A   Mostly Cloudy
8:03 PM 15.8 °F 4.2 °F 5.0 °F 62% 30.06 in 10.0 mi WNW 9.2 mph - N/A   Mostly Cloudy
8:54 PM 14.0 °F -0.2 °F 3.9 °F 64% 30.16 in 10.0 mi West 12.7 mph 24.2 mph 0.00 in   Overcast
9:51 PM 14.0 °F 2.0 °F 3.2 °F 62% 30.10 in 10.0 mi West 9.2 mph 19.6 mph N/A   Overcast
9:54 PM 12.9 °F -1.6 °F 3.9 °F 67% 30.18 in 10.0 mi West 12.7 mph 19.6 mph N/A   Overcast
10:54 PM 12.9 °F -0.2 °F 3.9 °F 67% 30.19 in 10.0 mi WSW 10.4 mph - N/A   Overcast
11:26 PM 12.2 °F -0.2 °F 3.2 °F 67% 30.13 in 10.0 mi WSW 9.2 mph - N/A   Overcast
11:54 PM 12.9 °F 1.6 °F 3.9 °F 67% 30.21 in 10.0 mi West 8.1 mph - N/A   Overcast